Temperature
23 21 22 22 21 23 23 23 22 21 19 17 16 15 16 15 15 15 14 14 14 14 15 15 16 16 17 17 17 17 17 17 16 16 16 16 16 16 16 16 16 16 17 17
21 22 23 23 23 22 23 23 22 20 19 17 16 15 15 15 14 14 13 13 14 14 15 15 16 16 17 17 17 16 16 16 16 16 15 15 15 16 16 16 16 16 17 17
23 24 24 25 25 24 24 23 23 21 19 17 16 15 15 15 15 14 13 13 14 14 14 15 16 16 16 16 16 16 16 16 16 16 16 16 16 16 16 16 16 16 16 17
23 24 24 24 25 25 24 24 23 22 19 17 18 17 15 14 14 14 14 14 14 14 15 15 16 16 16 16 16 16 16 16 16 16 16 16 15 15 15 15 16 16 16 17
23 24 24 24 25 25 24 22 21 21 19 17 17 17 16 14 14 14 14 14 14 15 15 15 16 16 16 16 16 16 16 16 16 15 15 15 15 15 15 15 15 15 16 16
22 23 23 24 24 24 23 21 19 17 17 18 17 17 16 15 14 14 14 14 14 15 15 15 15 15 16 16 16 16 16 16 15 15 15 14 14 14 14 14 14 15 15 15
21 23 23 24 24 23 21 20 19 19 18 18 17 17 16 16 15 15 14 14 15 15 15 15 15 15 15 15 15 15 15 15 15 14 14 14 14 13 13 13 13 13 13 14
21 21 23 23 24 23 22 20 19 19 18 17 17 17 16 15 15 15 15 15 14 14 14 15 15 15 15 15 15 15 14 14 14 14 13 13 13 13 13 13 12 12 12 12
21 21 22 23 23 23 22 19 18 16 17 17 17 17 16 15 15 14 14 14 14 14 14 15 15 15 14 14 14 14 14 13 13 13 13 13 12 12 12 12 12 11 11 11
21 21 21 21 22 21 20 17 16 16 17 18 18 17 14 14 13 13 13 14 14 15 15 15 14 14 14 13 13 13 13 13 13 13 12 12 12 12 12 11 11 11 11 11
20 19 20 20 20 20 20 19 15 14 15 16 17 16 14 13 13 13 13 14 14 14 14 14 13 13 13 13 12 12 12 12 12 12 12 12 12 11 11 11 11 10 10 10
18 16 18 19 20 20 19 18 16 17 16 15 15 14 13 13 13 13 14 14 14 14 13 13 13 12 12 12 12 12 12 11 11 11 11 11 11 11 11 11 11 10 10 10
18 16 17 18 18 18 18 18 15 14 13 14 15 15 13 12 13 13 13 14 13 13 13 12 12 12 11 11 11 11 11 11 11 11 11 11 11 11 11 11 10 10 10 10
17 15 17 18 18 18 18 17 17 15 14 15 15 15 13 12 12 12 13 13 13 12 12 12 11 11 11 10 10 10 10 10 10 10 10 10 10 10 10 10 10 10 10 10
16 16 17 17 18 18 17 17 17 16 16 15 15 14 13 12 12 12 13 13 12 12 11 11 10 10 9 9 9 8 8 8 8 8 8 8 9 9 9 9 9 9 9 9
15 17 18 18 18 17 17 17 17 16 16 15 14 13 12 13 12 12 12 12 11 11 10 10 9 9 8 8 7 7 7 7 7 7 7 7 7 7 8 8 8 8 9 9
14 16 16 16 17 17 16 16 16 16 15 14 13 12 12 10 10 11 12 11 11 10 9 9 8 8 7 7 6 6 6 5 5 5 6 6 6 6 6 7 7 7 8 8
15 14 13 15 17 18 16 16 16 15 14 13 12 12 11 11 12 12 12 11 10 9 8 8 7 7 6 6 5 5 5 5 5 5 5 5 5 5 5 5 6 6 7 7
14 14 14 14 16 16 16 16 16 14 13 12 12 11 11 12 10 10 11 10 9 8 8 7 7 6 6 5 5 5 5 5 4 4 4 4 4 4 4 4 5 5 5 6
13 13 13 14 17 16 16 16 16 15 13 13 12 11 11 9 7 8 10 9 8 8 7 7 6 6 6 5 5 5 4 4 4 4 4 4 4 4 4 4 4 5 5 5
16 14 14 14 15 15 15 16 15 14 14 13 13 12 11 9 9 10 9 8 8 7 7 6 6 6 6 5 5 5 5 5 4 4 4 4 4 4 4 4 4 4 4 5
16 15 14 12 15 15 15 14 14 14 14 14 13 12 11 11 10 9 8 8 7 7 6 6 6 6 6 5 5 5 5 5 5 4 4 4 4 4 4 4 4 4 4 4
14 14 13 13 14 15 15 15 16 15 14 13 12 12 11 10 9 8 8 7 7 6 6 6 6 6 6 6 5 5 5 5 5 5 4 4 4 4 4 4 4 4 4 4
14 12 12 12 13 14 15 15 15 14 14 13 12 11 10 9 9 8 7 7 7 6 6 6 6 6 6 6 6 6 6 6 5 5 5 5 4 4 4 4 4 4 4 4
15 12 12 13 13 14 14 15 15 14 13 12 12 11 10 9 8 7 7 7 6 6 6 6 6 6 6 6 6 6 6 6 6 5 5 5 5 4 4 4 4 4 4 4
12 13 13 14 15 13 16 17 15 13 13 12 11 10 9 8 8 7 7 7 6 6 6 6 6 6 6 6 6 6 6 6 6 6 6 5 5 5 5 5 4 5 5 5
Wind_Speed
4 4 3 6 7 6 3 1 1 2 5 9 13 12 11 11 12 12 11 10 9 8 7 7 7 7 6 7 6 6 7 7 6 4 4 4 4 3 2 2 5 8 9 9
5 3 6 5 4 5 4 2 2 4 8 7 9 11 8 10 9 8 8 8 7 6 7 7 6 6 6 6 6 6 7 7 7 4 3 3 3 2 1 2 3 5 6 6
3 5 4 2 1 2 2 4 4 5 5 6 7 6 5 5 6 7 8 7 7 7 7 6 6 6 6 6 6 5 5 5 6 6 4 3 3 3 4 5 4 5 5 3
4 4 3 2 1 2 3 3 3 7 6 2 3 2 1 1 5 5 6 6 6 5 5 4 5 6 6 4 4 4 4 5 5 5 5 5 4 3 3 3 4 6 5 4
5 3 3 3 2 1 2 4 5 5 5 4 4 4 2 3 2 3 3 3 4 4 5 5 5 5 5 5 4 4 4 3 3 3 4 4 3 1 2 3 5 6 6 6
5 4 3 3 3 1 4 6 6 6 5 3 2 2 3 5 5 4 3 3 4 5 6 6 6 7 7 7 6 5 4 4 3 2 1 2 1 2 3 3 4 4 4 4
8 7 4 2 3 4 6 6 5 6 5 3 2 1 4 3 4 5 6 6 6 6 6 8 8 8 9 9 8 7 6 6 5 4 3 2 2 2 2 3 3 3 3 3
5 8 6 5 1 1 2 7 6 3 4 4 3 2 3 1 3 3 3 4 5 6 7 9 10 10 10 10 9 8 7 8 8 7 7 6 5 4 4 5 4 4 4 4
1 6 7 5 4 2 3 4 4 6 2 1 4 3 3 3 1 1 1 2 5 7 8 9 10 10 10 10 10 9 9 9 9 9 9 8 8 7 7 7 6 5 6 5
2 4 7 8 8 9 6 7 5 5 2 2 4 3 4 5 4 1 0 2 5 7 8 9 9 9 8 9 9 9 9 10 11 10 10 9 9 9 9 8 8 8 8 7
3 2 7 6 7 7 6 6 6 5 4 4 3 3 3 3 2 0 2 4 6 8 9 9 9 9 9 9 10 10 11 11 11 12 12 11 11 11 10 9 10 10 9 8
4 4 2 4 5 3 4 5 4 3 0 2 2 4 2 1 1 1 3 6 8 9 10 9 9 9 10 11 11 11 12 13 13 13 12 13 12 11 11 12 12 11 11 10
5 5 4 7 8 7 7 5 5 5 5 2 1 5 2 2 3 4 6 8 9 10 10 9 10 10 11 12 12 12 13 14 14 13 13 14 14 13 13 14 13 12 12 11
5 5 4 3 4 2 4 6 4 5 3 1 4 7 4 4 6 8 9 10 10 10 11 10 11 11 12 13 13 13 14 14 15 14 15 15 16 15 15 14 13 13 12 12
5 5 2 0 1 4 4 4 5 4 3 4 7 7 6 5 7 9 9 10 11 12 12 12 12 12 12 12 12 12 13 14 14 15 15 16 16 15 15 14 13 13 12 13
5 5 2 2 3 5 4 3 2 1 2 4 6 7 6 6 6 8 11 11 11 12 12 13 13 13 13 13 13 13 13 13 13 14 16 16 16 16 16 15 14 13 13 12
3 4 3 2 3 0 2 3 3 4 5 6 7 7 7 8 9 9 10 11 11 13 13 13 13 13 13 13 13 13 14 14 14 15 16 16 16 16 16 17 15 13 12 11
6 5 4 1 3 3 6 3 4 5 6 7 7 8 9 11 9 10 10 9 11 12 11 12 12 12 13 13 14 14 15 15 15 16 16 16 16 17 16 15 15 14 11 10
4 7 4 3 1 6 3 4 4 4 7 7 7 9 8 8 8 7 7 6 9 10 12 13 14 15 13 14 14 15 16 16 16 17 17 17 17 17 16 16 14 12 10 10
6 6 6 4 2 5 7 3 1 2 6 6 6 8 8 7 7 7 7 9 10 11 12 13 13 14 14 14 14 15 17 17 17 18 18 17 16 16 16 15 13 11 10 10
3 4 4 3 4 7 6 2 3 1 6 4 5 7 7 5 7 9 11 10 10 12 14 14 14 14 14 14 14 16 17 17 18 18 17 17 15 14 13 12 11 9 8 8
6 4 4 4 3 7 5 6 6 8 3 3 5 6 7 8 9 9 9 10 12 13 13 12 13 15 14 13 14 16 17 17 17 17 17 16 14 12 11 9 8 7 7 7
6 8 6 8 7 5 5 8 6 6 5 5 5 7 6 7 8 8 8 10 12 13 12 13 14 15 15 13 13 16 17 17 17 16 16 14 13 10 9 8 7 6 5 5
3 4 4 4 7 6 6 5 4 6 6 5 6 6 5 7 8 10 10 10 12 11 13 12 14 16 16 15 15 15 16 16 16 16 14 13 11 10 9 7 5 5 4 4
6 7 4 5 6 4 7 8 7 5 5 5 5 4 5 7 8 8 9 11 11 12 11 12 14 15 16 16 16 16 15 15 15 15 13 12 10 9 8 7 5 4 4 5
6 8 8 8 8 8 8 7 8 7 7 7 5 5 5 5 8 8 9 9 10 13 13 13 14 15 16 16 16 15 14 15 14 13 12 10 9 8 7 6 5 4 3 4
Wind_Direction
39 59 291 252 210 216 240 230 118 124 124 72 76 66 39 34 46 55 59 58 57 54 46 41 39 38 43 35 24 16 6 358 355 344 334 329 319 289 251 245 264 252 239 225
31 323 265 259 215 198 198 161 113 98 115 104 91 68 39 33 39 43 49 49 49 47 40 31 27 27 33 34 28 24 16 6 359 345 317 296 307 313 346 353 305 276 253 229
192 248 290 321 89 137 185 186 181 157 115 122 120 71 28 12 25 38 38 38 37 42 34 17 12 12 21 24 17 17 9 5 3 357 347 343 354 357 14 7 345 320 304 260
266 273 321 354 9 118 288 271 175 149 140 161 175 130 176 332 356 9 14 16 18 13 11 357 353 355 3 359 352 352 353 357 358 10 37 47 36 19 356 339 336 338 343 334
288 302 319 301 272 184 213 48 77 107 122 86 44 113 198 195 257 284 308 335 338 334 333 324 322 321 317 312 311 308 319 338 345 12 44 62 52 5 324 337 348 350 353 360
271 282 243 254 306 76 119 75 58 56 71 64 331 147 224 209 203 207 230 252 272 289 298 298 299 298 294 292 290 287 296 303 309 333 22 67 50 352 350 346 345 342 338 345
336 332 318 288 354 17 70 74 27 7 9 274 298 152 249 219 179 184 203 225 246 267 278 283 285 283 279 278 274 273 276 281 283 286 281 260 246 256 271 282 293 306 314 312
360 321 324 350 350 287 78 123 146 206 237 284 344 297 299 169 144 152 183 218 248 265 272 275 275 274 276 278 276 270 265 266 272 273 272 269 259 250 251 252 253 258 257 263
298 288 317 349 347 85 95 76 141 130 136 356 306 312 357 64 81 155 190 235 261 270 274 275 278 281 282 283 280 273 267 268 268 264 263 264 260 251 251 253 253 256 258 262
152 290 316 323 20 27 86 132 87 93 119 303 311 342 333 326 307 272 250 273 284 286 285 287 289 292 295 294 291 288 272 266 268 267 262 263 254 250 248 250 252 251 253 256
100 89 330 17 27 342 10 51 83 93 129 151 269 282 341 305 326 6 282 284 285 287 288 290 295 299 297 298 295 290 284 278 276 272 268 265 262 257 250 246 248 248 250 249
98 103 1 315 315 342 66 60 110 110 94 135 190 261 318 352 34 320 289 286 287 287 288 290 294 297 296 294 293 288 284 282 279 277 275 272 268 262 255 250 248 244 243 244
114 85 36 355 347 5 35 33 74 94 96 107 218 266 202 322 314 294 286 287 291 297 299 300 301 297 295 294 293 291 288 286 286 285 283 280 277 271 262 255 249 243 240 241
101 84 134 186 251 315 33 22 45 83 91 270 240 257 245 299 302 298 295 293 297 300 300 298 298 296 295 296 296 295 293 291 291 289 286 283 279 275 271 263 254 245 238 236
82 92 88 25 2 100 83 61 61 91 163 211 260 262 254 257 279 282 286 293 299 299 299 298 298 297 297 298 298 297 295 294 294 293 290 286 283 280 277 270 261 253 242 237
66 112 100 50 62 90 81 46 74 118 240 250 270 272 245 272 286 284 286 290 294 296 300 302 303 303 303 303 302 301 299 297 296 294 292 290 288 286 282 276 268 258 248 239
85 118 114 219 259 267 262 222 215 232 230 223 243 256 287 294 288 282 286 294 297 301 304 304 304 301 301 302 303 302 299 299 297 294 293 292 289 287 285 282 275 264 254 242
124 103 114 118 45 264 251 228 209 228 240 215 230 258 276 271 277 277 278 283 291 297 299 302 302 302 301 301 302 302 303 302 300 297 295 293 290 288 285 281 273 266 258 248
128 130 113 109 265 287 270 219 193 230 269 213 232 263 277 294 317 293 275 281 288 295 299 302 303 304 304 305 306 307 307 305 303 301 297 295 291 288 286 282 273 266 257 248
64 87 111 125 193 253 247 208 168 153 287 222 228 268 286 321 325 290 293 311 306 305 304 304 304 305 307 308 311 312 313 312 309 307 303 299 294 289 285 282 276 267 255 246
48 52 107 163 225 262 239 178 99 204 269 220 232 263 277 258 245 274 302 304 298 299 303 305 308 312 312 313 316 316 315 315 313 310 308 305 301 295 290 286 279 271 260 247
176 165 185 159 213 266 200 145 185 222 237 241 256 265 267 266 275 289 297 299 304 307 308 311 314 317 316 317 319 319 318 317 317 315 314 313 309 304 302 295 287 278 262 246
193 190 189 190 214 244 206 203 211 182 211 245 252 267 277 283 288 294 293 297 303 306 310 314 316 319 320 321 321 320 319 321 321 320 319 318 316 312 305 297 290 281 260 242
244 146 155 238 259 238 231 229 217 196 215 244 260 277 281 281 285 291 293 299 307 309 315 317 320 322 323 323 323 320 320 323 323 323 323 323 322 319 315 306 292 274 254 235
227 170 186 245 267 253 253 234 223 219 233 264 280 275 273 276 283 285 294 303 310 315 316 317 321 322 322 323 323 323 324 326 327 326 326 327 327 325 323 319 308 286 257 236
197 178 178 221 215 193 232 225 200 206 232 249 260 273 276 271 277 288 298 302 309 315 317 320 322 324 324 324 323 324 328 329 328 327 328 327 327 327 326 326 329 329 311 263
Height
1489 1495 1499 1496 1494 1494 1495 1499 1504 1504 1505 1510 1516 1518 1517 1514 1510 1508 1508 1507 1506 1506 1506 1505 1504 1503 1503 1502 1502 1500 1499 1498 1495 1492 1489 1486 1483 1480 1479 1482 1486 1490 1492 1494
1495 1496 1489 1486 1487 1491 1494 1498 1502 1505 1506 1512 1519 1520 1519 1516 1515 1513 1511 1510 1509 1508 1507 1506 1505 1505 1503 1502 1501 1500 1499 1497 1495 1492 1490 1487 1484 1481 1480 1481 1484 1486 1488 1491
1495 1491 1484 1484 1486 1489 1491 1494 1497 1503 1507 1512 1516 1524 1523 1520 1518 1516 1515 1513 1512 1511 1509 1509 1507 1506 1504 1503 1502 1501 1499 1497 1495 1493 1491 1488 1485 1483 1482 1482 1484 1484 1485 1486
1491 1486 1485 1485 1486 1486 1493 1486 1488 1495 1508 1517 1514 1529 1528 1524 1521 1519 1517 1516 1514 1513 1512 1511 1509 1508 1506 1505 1504 1502 1500 1497 1495 1492 1490 1488 1486 1484 1483 1482 1482 1482 1482 1482
1492 1486 1486 1487 1484 1482 1486 1486 1489 1496 1506 1517 1518 1526 1528 1525 1524 1521 1519 1518 1516 1515 1514 1513 1511 1510 1508 1506 1504 1502 1500 1497 1494 1492 1489 1487 1484 1483 1481 1480 1479 1478 1478 1478
1489 1484 1484 1483 1480 1480 1483 1490 1497 1505 1513 1524 1522 1524 1527 1523 1521 1520 1520 1519 1518 1517 1516 1514 1512 1510 1508 1506 1504 1501 1499 1496 1493 1490 1488 1485 1483 1481 1479 1477 1476 1475 1474 1473
1496 1487 1482 1481 1483 1484 1487 1502 1521 1523 1531 1529 1521 1523 1524 1516 1516 1517 1518 1518 1518 1517 1516 1514 1512 1509 1507 1504 1502 1499 1496 1493 1491 1488 1485 1483 1480 1478 1476 1474 1472 1470 1469 1468
1508 1506 1488 1483 1485 1488 1491 1500 1523 1531 1534 1530 1523 1524 1521 1515 1516 1517 1517 1518 1518 1517 1515 1513 1510 1508 1505 1502 1499 1496 1492 1490 1487 1484 1482 1479 1477 1474 1472 1470 1468 1466 1464 1463
1508 1506 1488 1484 1483 1485 1493 1503 1505 1522 1526 1533 1528 1521 1518 1516 1517 1517 1517 1517 1517 1516 1514 1511 1508 1505 1501 1498 1495 1491 1488 1485 1482 1480 1477 1474 1472 1470 1467 1465 1463 1461 1459 1458
1500 1507 1496 1490 1485 1488 1492 1501 1512 1523 1532 1535 1528 1526 1530 1522 1519 1517 1517 1516 1515 1513 1511 1508 1505 1501 1498 1494 1490 1487 1483 1480 1477 1475 1472 1469 1466 1464 1461 1459 1457 1455 1454 1453
1499 1510 1506 1498 1501 1503 1499 1504 1516 1526 1527 1535 1537 1535 1526 1523 1520 1518 1516 1515 1513 1511 1508 1504 1501 1498 1494 1491 1487 1483 1479 1475 1472 1468 1465 1462 1459 1457 1454 1452 1450 1449 1448 1447
1503 1512 1517 1508 1501 1499 1501 1506 1513 1522 1527 1532 1537 1538 1525 1522 1519 1517 1515 1513 1511 1508 1504 1501 1497 1494 1490 1486 1482 1477 1473 1469 1465 1461 1457 1454 1450 1448 1445 1444 1442 1442 1440 1440
1503 1514 1527 1523 1517 1508 1507 1509 1515 1522 1530 1534 1538 1534 1523 1521 1518 1516 1513 1511 1508 1504 1501 1497 1494 1489 1485 1480 1476 1471 1466 1462 1457 1453 1448 1444 1441 1438 1436 1434 1433 1432 1432 1432
1501 1516 1525 1529 1523 1515 1515 1515 1515 1521 1532 1532 1529 1525 1521 1519 1516 1513 1510 1507 1504 1501 1497 1493 1489 1484 1479 1474 1469 1464 1459 1454 1449 1444 1439 1435 1431 1428 1425 1423 1422 1422 1422 1422
1503 1517 1517 1517 1514 1513 1516 1518 1518 1520 1522 1528 1524 1521 1517 1516 1514 1511 1507 1504 1500 1497 1493 1489 1484 1478 1473 1467 1462 1456 1451 1446 1440 1435 1429 1424 1421 1417 1414 1412 1411 1410 1411 1411
1508 1516 1517 1519 1516 1516 1520 1519 1518 1519 1519 1520 1520 1519 1513 1512 1511 1508 1504 1500 1496 1492 1488 1484 1478 1472 1467 1461 1455 1449 1443 1437 1432 1426 1420 1415 1410 1406 1402 1400 1399 1398 1398 1400
1513 1517 1523 1526 1520 1521 1525 1520 1518 1519 1518 1519 1521 1517 1511 1510 1507 1504 1499 1496 1493 1489 1484 1478 1473 1466 1460 1454 1448 1441 1435 1429 1423 1417 1411 1406 1401 1396 1392 1389 1387 1386 1387 1389
1512 1520 1528 1528 1524 1527 1523 1513 1513 1515 1514 1514 1513 1512 1509 1506 1503 1500 1496 1494 1489 1484 1479 1473 1466 1460 1454 1447 1441 1434 1428 1421 1415 1409 1402 1397 1391 1386 1382 1378 1376 1375 1376 1377
1506 1515 1526 1532 1528 1525 1518 1512 1512 1515 1515 1510 1511 1509 1506 1502 1499 1495 1493 1490 1485 1480 1474 1468 1461 1454 1447 1441 1434 1427 1420 1414 1407 1401 1394 1388 1382 1376 1372 1368 1366 1365 1365 1367
1509 1512 1523 1530 1527 1529 1517 1508 1508 1513 1514 1508 1507 1505 1503 1501 1501 1493 1489 1485 1480 1475 1469 1462 1455 1448 1441 1435 1428 1421 1414 1407 1400 1393 1386 1380 1374 1368 1362 1359 1357 1356 1356 1357
1513 1519 1524 1527 1528 1521 1508 1506 1509 1518 1513 1505 1504 1502 1500 1499 1497 1490 1486 1481 1476 1470 1464 1457 1450 1442 1436 1429 1423 1416 1409 1402 1395 1387 1380 1373 1366 1361 1355 1352 1350 1349 1349 1350
1514 1520 1524 1529 1527 1521 1503 1505 1508 1507 1501 1501 1500 1499 1497 1494 1490 1487 1482 1477 1471 1465 1458 1451 1444 1438 1431 1425 1419 1412 1405 1398 1390 1382 1375 1367 1361 1355 1351 1347 1345 1344 1344 1345
1510 1510 1512 1514 1513 1502 1499 1499 1499 1499 1499 1498 1497 1495 1493 1490 1487 1483 1478 1473 1467 1460 1454 1447 1441 1433 1427 1422 1415 1408 1401 1394 1386 1379 1371 1364 1358 1353 1348 1345 1342 1341 1341 1342
1503 1503 1505 1506 1501 1498 1497 1497 1497 1497 1496 1496 1494 1492 1490 1487 1484 1479 1475 1469 1462 1456 1450 1443 1437 1430 1424 1418 1412 1406 1399 1391 1384 1376 1369 1362 1356 1351 1347 1343 1341 1339 1339 1340
1497 1500 1502 1502 1497 1496 1494 1494 1494 1494 1494 1493 1492 1490 1487 1484 1480 1476 1470 1465 1459 1452 1446 1440 1434 1427 1421 1415 1409 1403 1396 1389 1382 1375 1369 1362 1356 1351 1347 1343 1341 1339 1338 1338
1492 1494 1497 1497 1490 1491 1490 1489 1491 1491 1491 1490 1489 1486 1484 1481 1477 1472 1467 1461 1456 1449 1443 1437 1431 1425 1418 1412 1406 1400 1394 1388 1381 1374 1368 1362 1357 1352 1348 1345 1342 1340 1338 1338